TimeEST,TemperatureF,Dew PointF,Humidity,Sea Level PressureIn,VisibilityMPH,Wind Direction,Wind SpeedMPH,Gust SpeedMPH,PrecipitationIn,Events,Conditions,WindDirDegrees,DateUTC
12:53 AM,30.9,28.0,89,29.91,5.0,SE,17.3,-,0.00,Rain,Light Freezing Rain,130,2013-02-22 05:53:00
1:53 AM,30.9,28.0,89,29.88,8.0,SE,15.0,-,0.01,Rain,Light Freezing Rain,130,2013-02-22 06:53:00
2:10 AM,30.2,28.4,93,29.86,1.8,SE,13.8,-,0.00,Rain,Light Freezing Rain,130,2013-02-22 07:10:00
2:45 AM,30.2,28.4,93,29.83,2.0,ESE,11.5,-,0.02,Rain,Light Freezing Rain,120,2013-02-22 07:45:00
3:01 AM,32.0,28.4,87,29.83,3.0,ESE,11.5,-,0.00,Rain,Light Freezing Rain,120,2013-02-22 08:01:00
3:53 AM,32.0,30.0,92,29.85,2.5,Variable,5.8,-,0.00,Rain,Light Freezing Rain,0,2013-02-22 08:53:00
4:38 AM,33.8,30.2,87,29.82,1.8,SE,8.1,-,0.00,Rain,Light Freezing Rain,140,2013-02-22 09:38:00
4:42 AM,33.8,30.2,87,29.81,2.0,SE,6.9,-,0.00,Rain,Light Freezing Rain,140,2013-02-22 09:42:00
4:53 AM,33.1,30.9,92,29.83,2.5,SE,8.1,-,0.00,Rain,Light Freezing Rain,140,2013-02-22 09:53:00
5:53 AM,33.1,30.9,92,29.84,1.5,SSE,8.1,-,0.00,Rain,Light Freezing Rain,150,2013-02-22 10:53:00
6:14 AM,33.8,30.2,87,29.82,2.0,SSE,6.9,-,0.00,Rain,Light Freezing Rain,150,2013-02-22 11:14:00
6:29 AM,33.8,30.2,87,29.83,1.8,SSE,8.1,-,0.00,Rain,Light Freezing Rain,160,2013-02-22 11:29:00
6:39 AM,33.8,30.2,87,29.83,2.0,South,5.8,-,0.00,Rain,Light Freezing Rain,170,2013-02-22 11:39:00
6:46 AM,33.8,30.2,87,29.84,1.8,SSE,4.6,-,0.00,Rain,Light Freezing Rain,160,2013-02-22 11:46:00
7:07 AM,33.8,30.2,87,29.84,2.0,SSE,5.8,-,0.00,Rain,Light Freezing Rain,160,2013-02-22 12:07:00
7:16 AM,33.8,30.2,87,29.84,1.8,SSE,8.1,-,0.00,Rain,Light Freezing Rain,150,2013-02-22 12:16:00
7:50 AM,33.8,30.2,87,29.85,0.5,SSE,6.9,-,0.00,Fog-Rain,Light Freezing Rain,150,2013-02-22 12:50:00
7:53 AM,33.1,30.9,92,29.87,0.5,SSE,4.6,-,0.00,Fog-Rain,Light Freezing Rain,160,2013-02-22 12:53:00
8:07 AM,33.8,30.2,87,29.85,0.2,SSE,4.6,-,0.00,Fog-Rain,Light Freezing Rain,160,2013-02-22 13:07:00
8:33 AM,33.8,32.0,93,29.86,0.5,South,6.9,-,0.00,Fog-Rain,Light Freezing Rain,180,2013-02-22 13:33:00
8:40 AM,33.8,32.0,93,29.86,0.2,South,6.9,-,0.00,Fog-Rain,Light Freezing Rain,190,2013-02-22 13:40:00
8:53 AM,34.0,32.0,92,29.88,0.2,South,6.9,-,0.00,Fog-Rain,Light Freezing Rain,190,2013-02-22 13:53:00
9:34 AM,33.8,33.8,100,29.88,0.2,SW,9.2,-,0.00,Fog,Fog,220,2013-02-22 14:34:00
9:49 AM,35.6,33.8,93,29.88,1.0,SW,11.5,-,0.00,,Overcast,230,2013-02-22 14:49:00
9:53 AM,35.1,33.1,92,29.91,1.8,WSW,9.2,18.4,0.00,,Overcast,240,2013-02-22 14:53:00
10:00 AM,35.6,33.8,93,29.88,2.5,WSW,12.7,21.9,N/A,,Overcast,240,2013-02-22 15:00:00
10:08 AM,35.6,32.0,87,29.88,4.0,WSW,11.5,26.5,N/A,,Overcast,250,2013-02-22 15:08:00
10:53 AM,34.0,32.0,92,29.92,4.0,SW,13.8,20.7,N/A,,Overcast,230,2013-02-22 15:53:00
11:53 AM,34.0,32.0,92,29.95,6.0,SW,16.1,21.9,N/A,,Overcast,230,2013-02-22 16:53:00
12:12 PM,33.8,32.0,93,29.93,8.0,SW,13.8,20.7,N/A,,Overcast,230,2013-02-22 17:12:00
12:53 PM,35.1,30.9,85,29.96,10.0,SW,10.4,21.9,N/A,,Overcast,230,2013-02-22 17:53:00
1:23 PM,35.6,30.2,81,29.93,10.0,WSW,11.5,-,N/A,,Overcast,240,2013-02-22 18:23:00
1:48 PM,35.6,30.2,81,29.93,10.0,SW,13.8,-,N/A,,Overcast,230,2013-02-22 18:48:00
1:53 PM,36.0,30.0,79,29.95,10.0,WSW,13.8,-,N/A,,Overcast,240,2013-02-22 18:53:00
2:53 PM,36.0,28.9,76,29.95,10.0,WSW,16.1,27.6,N/A,,Overcast,240,2013-02-22 19:53:00
3:53 PM,37.0,30.0,76,29.95,10.0,WSW,9.2,-,N/A,,Overcast,240,2013-02-22 20:53:00
4:53 PM,37.0,28.9,73,29.95,10.0,WSW,11.5,-,N/A,,Overcast,240,2013-02-22 21:53:00
5:53 PM,37.0,28.0,70,29.96,10.0,WSW,10.4,-,N/A,,Overcast,250,2013-02-22 22:53:00
6:53 PM,36.0,28.0,73,29.96,10.0,WSW,6.9,-,N/A,,Overcast,240,2013-02-22 23:53:00
7:53 PM,36.0,28.9,76,29.97,10.0,WSW,5.8,-,N/A,,Overcast,250,2013-02-23 00:53:00
8:53 PM,35.1,28.0,76,29.98,10.0,West,6.9,-,N/A,,Overcast,270,2013-02-23 01:53:00
9:53 PM,34.0,27.0,75,30.00,10.0,West,6.9,-,N/A,,Overcast,270,2013-02-23 02:53:00
10:53 PM,33.1,26.1,75,30.01,10.0,WNW,5.8,-,N/A,,Overcast,290,2013-02-23 03:53:00
11:53 PM,32.0,23.0,69,30.02,10.0,WNW,10.4,19.6,N/A,,Overcast,290,2013-02-23 04:53:00